Sioux City, IA

1:38 AM CST on December 17, 2017 (GMT -0600)
Sioux Gateway

Weather History for KSUX - May, 2013

Change the Weather History Date:

Wednesday, May 22, 2013

  Actual Average Record
Temperature  
Mean Temperature 55 °F 63 °F  
Max Temperature 58 °F 75 °F 92 °F (2000)
Min Temperature 51 °F 51 °F 31 °F (1963)
Degree Days  
Heating Degree Days 10 4  
Month to date heating degree days 208 152  
Since 1 July heating degree days 7036 6804  
Cooling Degree Days 0 2  
Month to date cooling degree days 39 30  
Year to date cooling degree days 40 41  
Growing Degree Days 4 (Base 50)    
Moisture  
Dew Point 49 °F    
Average Humidity 84    
Maximum Humidity 97    
Minimum Humidity 67    
Precipitation  
Precipitation 0.07 in 0.13 in 2.23 in (1936)
Month to date precipitation 3.24 2.61  
Year to date precipitation 11.29 8.85  
Snow  
Snow 0.00 in 0.00 in 0.00 in ()
Month to date snowfall 1.4 0.2  
Since 1 July snowfall 45.1 35.0  
Snow Depth 0.00 in    
Sea Level Pressure  
Sea Level Pressure 29.83 in    
Wind  
Wind Speed 13 mph (NNW)    
Max Wind Speed 23 mph    
Max Gust Speed 32 mph    
Visibility 9 miles    
Events Rain    
T = Trace of Precipitation, MM = Missing Value Source: NWS Daily Summary

Daily Weather History Graph

Daily Weather History Graph

Search for Another Location

Airport or City:

Trip Planner

Search our weather history database for the weather conditions in past years. The results will help you decide how hot, cold, wet, or windy it might be!

Date:

Astronomy

May. 22, 2013 Rise Set
Actual Time 5:57 AM CDT 8:47 PM CDT
Civil Twilight 5:24 AM CDT 9:20 PM CDT
Nautical Twilight 4:42 AM CDT 10:02 PM CDT
Astronomical Twilight 3:54 AM CDT 10:51 PM CDT
Moon 6:08 PM CDT (5/22) 4:05 AM CDT (5/22)
Length of Visible Light 15h 56m
Length of Day
14h 50m
Waxing Gibbous, 91% of the Moon is Illuminated
May 22
Waxing Gibbous
May 24
Full
May 31
Last Quarter
Jun 8
New
Jun 16
First Quarter

Hourly Weather History & Observations

Time (CDT) Temp. Dew Point Humidity Pressure Visibility Wind Dir Wind Speed Gust Speed Precip Events Conditions
12:52 AM 52.0 °F 50.0 °F 93% 29.69 in 10.0 mi NW 15.0 mph - N/A   Overcast
1:52 AM 52.0 °F 50.0 °F 93% 29.70 in 10.0 mi NW 16.1 mph - N/A   Overcast
2:52 AM 52.0 °F 50.0 °F 93% 29.70 in 5.0 mi NW 13.8 mph - 0.00 in Rain Light Rain
3:52 AM 52.0 °F 51.1 °F 97% 29.71 in 3.0 mi NW 13.8 mph - 0.01 in Rain Light Rain
4:52 AM 52.0 °F 51.1 °F 97% 29.71 in 8.0 mi NW 13.8 mph - 0.01 in Rain Light Rain
5:52 AM 52.0 °F 50.0 °F 93% 29.71 in 8.0 mi NW 11.5 mph - 0.00 in Rain Light Rain
6:52 AM 51.1 °F 48.9 °F 92% 29.73 in 10.0 mi NW 16.1 mph - 0.02 in Rain Light Rain
7:52 AM 51.1 °F 48.9 °F 92% 29.74 in 10.0 mi NNW 13.8 mph - 0.01 in Rain Light Rain
7:59 AM 51.8 °F 48.2 °F 88% 29.74 in 10.0 mi NNW 16.1 mph - 0.01 in Rain Light Rain
8:06 AM 51.8 °F 48.2 °F 88% 29.74 in 10.0 mi NNW 13.8 mph - 0.01 in Rain Light Rain
8:52 AM 51.1 °F 48.0 °F 89% 29.77 in 10.0 mi NNW 13.8 mph - 0.01 in Rain Light Rain
9:27 AM 51.8 °F 48.2 °F 88% 29.77 in 10.0 mi North 15.0 mph - 0.00 in   Overcast
9:52 AM 53.1 °F 48.9 °F 86% 29.78 in 10.0 mi NNW 11.5 mph 20.7 mph 0.00 in   Overcast
10:52 AM 54.0 °F 46.9 °F 77% 29.80 in 10.0 mi North 12.7 mph - N/A   Overcast
11:52 AM 54.0 °F 48.9 °F 83% 29.81 in 9.0 mi NNW 10.4 mph - 0.00 in Rain Light Rain
12:52 PM 54.0 °F 50.0 °F 86% 29.82 in 6.0 mi NNW 12.7 mph - 0.00 in Rain Light Rain
1:20 PM 53.6 °F 51.8 °F 94% 29.82 in 10.0 mi NW 9.2 mph - 0.01 in   Overcast
1:52 PM 55.9 °F 51.1 °F 84% 29.82 in 10.0 mi NW 10.4 mph - 0.01 in   Overcast
2:08 PM 53.6 °F 50.0 °F 88% 29.83 in 6.0 mi NNW 13.8 mph - 0.00 in Rain Light Rain
2:35 PM 57.2 °F 51.8 °F 82% 29.83 in 10.0 mi NW 13.8 mph - 0.00 in   Overcast
2:52 PM 57.9 °F 50.0 °F 75% 29.83 in 10.0 mi NNW 15.0 mph 21.9 mph 0.00 in   Overcast
3:00 PM 55.4 °F 48.2 °F 77% 29.83 in 10.0 mi NNW 19.6 mph 32.2 mph N/A   Overcast
3:52 PM 55.9 °F 48.9 °F 77% 29.84 in 10.0 mi NNW 17.3 mph 23.0 mph 0.00 in   Overcast
4:52 PM 55.9 °F 48.9 °F 77% 29.85 in 10.0 mi NNW 17.3 mph - 0.00 in   Overcast
5:14 PM 55.4 °F 48.2 °F 77% 29.85 in 10.0 mi NNW 17.3 mph - N/A   Overcast
5:28 PM 55.4 °F 48.2 °F 77% 29.86 in 10.0 mi NNW 12.7 mph - N/A   Overcast
5:52 PM 55.9 °F 48.9 °F 77% 29.87 in 10.0 mi NNW 10.4 mph - N/A   Overcast
6:01 PM 55.4 °F 48.2 °F 77% 29.87 in 10.0 mi NNW 13.8 mph - N/A   Overcast
6:16 PM 55.4 °F 48.2 °F 77% 29.87 in 10.0 mi NNW 11.5 mph - N/A   Overcast
6:52 PM 55.9 °F 48.0 °F 75% 29.88 in 10.0 mi NNW 13.8 mph 20.7 mph N/A   Overcast
7:52 PM 55.0 °F 48.0 °F 77% 29.91 in 10.0 mi NNW 10.4 mph - N/A   Overcast
8:52 PM 54.0 °F 48.9 °F 83% 29.94 in 10.0 mi North 10.4 mph - N/A   Overcast
9:09 PM 53.6 °F 48.2 °F 82% 29.93 in 10.0 mi North 16.1 mph 21.9 mph 0.00 in Rain Light Rain
9:17 PM 53.6 °F 48.2 °F 82% 29.94 in 10.0 mi North 15.0 mph - 0.00 in   Overcast
9:39 PM 53.6 °F 48.2 °F 82% 29.95 in 10.0 mi North 9.2 mph - 0.00 in   Overcast
9:52 PM 53.1 °F 48.9 °F 86% 29.96 in 10.0 mi North 11.5 mph - 0.00 in   Overcast
10:37 PM 53.6 °F 48.2 °F 82% 29.98 in 10.0 mi North 10.4 mph - N/A   Overcast
10:52 PM 53.1 °F 48.9 °F 86% 29.99 in 10.0 mi North 10.4 mph - N/A   Overcast
11:41 PM 53.6 °F 48.2 °F 82% 29.99 in 10.0 mi NNW 10.4 mph - N/A   Overcast
11:48 PM 53.6 °F 48.2 °F 82% 30.00 in 10.0 mi NNW 13.8 mph - N/A   Overcast
11:52 PM 53.1 °F 48.0 °F 83% 30.00 in 10.0 mi NNW 16.1 mph - N/A   Overcast